Temperature
17 16 15 15 14 14 13 13 13 12 12 12 12 12 12 12 12 12 13 13 13 13 14 14 14 15 15 16 16 16 16 16 16 16 16 17 17 17 17 18 18 18 18
17 17 16 15 14 14 13 13 13 12 12 12 12 12 12 12 12 12 12 13 13 13 13 14 14 14 15 15 15 16 16 16 16 16 16 16 17 17 17 17 17 18 18
17 17 16 15 14 14 13 13 12 12 12 12 12 12 12 12 12 12 12 12 13 13 13 13 14 14 15 15 15 15 16 16 16 16 16 16 16 17 17 18 18 18 18
17 16 15 15 14 14 13 13 12 12 12 11 12 11 11 12 12 12 12 12 12 13 13 13 13 14 14 14 15 15 15 15 15 16 16 16 16 16 17 17 18 18 18
16 16 15 15 14 13 13 12 12 12 11 11 11 11 11 11 11 12 12 12 12 12 12 13 13 13 13 14 14 14 15 15 15 15 15 15 15 16 16 17 17 17 18
16 16 15 14 14 13 13 12 12 12 11 11 11 11 11 11 11 11 12 12 12 12 12 12 13 13 13 13 14 14 14 15 15 15 15 15 15 15 16 16 17 17 17
17 16 15 15 14 13 13 12 12 12 11 11 11 11 11 11 11 11 11 11 12 12 12 12 12 12 13 13 13 14 14 14 14 15 15 15 15 16 16 16 16 16 17
17 16 15 15 14 13 13 13 12 12 12 11 11 11 11 11 11 11 11 11 11 11 12 12 12 12 12 13 13 13 14 14 14 14 15 15 15 15 15 15 16 16 16
17 16 15 15 14 14 13 13 12 12 12 11 11 11 11 11 11 11 11 11 11 11 11 12 12 12 12 12 13 13 13 14 14 14 14 14 15 15 15 15 15 15 15
17 16 15 15 14 14 13 13 13 12 12 11 11 11 11 11 11 10 10 11 11 11 11 11 11 11 12 12 12 13 13 13 13 14 14 14 14 14 15 15 15 15 15
17 16 16 15 14 14 14 13 13 12 12 12 11 11 11 10 10 10 10 10 10 11 11 11 11 11 11 12 12 12 12 13 13 13 13 14 14 14 14 14 15 15 15
17 16 16 15 15 14 14 13 13 13 12 12 11 11 11 10 10 10 10 10 10 10 10 11 11 11 11 11 11 12 12 12 13 13 13 13 14 14 14 14 14 14 14
17 16 16 15 15 14 14 14 13 13 12 12 11 11 11 10 10 10 10 10 10 10 10 10 11 11 11 11 11 11 12 12 12 12 13 13 13 13 14 14 14 14 14
17 17 16 16 15 15 14 14 13 13 12 12 11 11 11 10 10 10 10 10 10 10 10 10 10 11 11 11 11 11 11 12 12 12 12 13 13 13 13 14 14 14 14
17 17 16 16 15 15 15 14 13 13 13 12 11 11 11 10 10 10 10 10 10 10 10 10 10 11 11 11 11 11 11 11 12 12 12 13 13 13 13 13 14 13 13
18 17 17 16 16 16 15 14 14 13 13 12 12 11 11 10 10 10 10 10 10 10 10 10 10 10 10 11 11 11 11 11 12 12 12 12 13 13 13 13 13 13 13
18 17 17 17 16 16 15 14 14 13 13 12 12 11 11 10 10 10 10 10 10 10 10 10 10 10 10 11 11 11 11 11 11 12 12 12 12 13 13 13 13 13 13
18 17 17 16 16 16 15 14 14 14 13 12 12 11 11 11 10 10 10 10 10 10 10 10 10 10 10 10 11 11 11 11 11 11 11 12 12 12 13 13 13 13 13
18 17 17 17 16 16 15 15 14 14 13 13 12 12 11 11 11 10 10 10 10 10 10 10 10 10 10 10 11 11 11 11 11 11 11 12 12 12 12 12 13 13 13
18 17 17 17 16 16 15 15 15 14 14 13 13 12 12 11 11 11 11 10 10 10 10 10 10 10 10 10 11 11 11 11 11 11 11 11 12 12 12 12 12 13 13
18 18 17 17 16 16 15 15 15 15 14 14 13 13 12 12 12 11 11 11 11 10 10 10 10 10 10 10 11 11 11 11 11 11 11 11 12 12 12 12 12 12 13
18 18 17 17 16 16 16 15 15 15 14 14 14 13 13 12 12 12 12 11 11 11 10 10 10 10 10 10 11 11 11 11 11 11 11 11 12 12 12 12 12 12 12
17 17 17 17 16 16 16 16 15 15 15 14 14 14 13 13 13 12 12 11 11 11 11 11 10 10 10 10 11 11 11 11 11 11 11 11 11 12 12 12 12 12 12
17 17 17 17 16 16 16 16 15 15 15 15 14 14 14 13 13 13 12 12 11 11 11 11 11 11 10 10 10 11 11 11 11 11 11 11 11 11 11 11 12 11 12
16 16 16 16 16 15 15 15 15 15 15 15 14 14 14 14 13 13 13 13 12 12 11 11 11 11 11 11 11 11 11 11 11 11 11 11 11 11 11 11 11 11 11
15 15 15 15 15 15 14 15 15 15 14 14 14 14 14 14 14 13 13 13 13 13 12 12 12 11 11 11 11 11 11 11 11 11 11 11 11 11 11 11 11 11 11
Wind_Speed
5 5 6 7 8 9 10 10 11 11 9 8 8 8 8 8 7 6 7 7 8 8 8 7 7 7 7 8 9 8 8 7 6 5 5 7 9 10 9 9 9 10 10
6 5 6 7 8 9 10 10 10 10 10 8 8 7 8 7 7 6 7 7 7 7 6 7 6 7 7 8 9 9 7 6 7 5 4 5 6 8 11 10 9 10 10
7 7 7 8 8 9 9 9 10 10 9 9 7 7 7 6 6 7 7 7 8 7 6 7 7 7 7 8 9 10 10 8 7 7 5 5 7 5 7 12 11 10 8
5 6 7 8 8 8 8 9 9 9 9 9 8 10 8 8 8 8 7 8 7 7 6 7 7 8 7 8 9 10 10 10 8 7 8 6 3 4 5 7 10 11 11
5 5 6 7 7 8 7 8 8 8 8 8 8 8 8 8 8 8 8 8 7 6 6 7 7 8 7 8 9 9 10 9 10 8 7 8 6 7 4 6 8 9 10
4 5 5 5 6 6 6 6 7 8 8 8 8 8 9 9 10 10 9 8 7 6 7 7 7 7 7 8 8 9 10 10 11 10 9 8 7 8 7 6 7 8 9
4 4 5 6 6 6 6 6 7 7 7 8 8 8 9 9 9 10 9 9 7 7 8 7 7 7 7 7 8 8 9 11 12 12 10 10 9 6 7 6 5 5 5
4 4 5 5 5 6 6 6 7 7 7 7 8 8 8 7 7 9 9 8 7 8 9 8 7 7 7 7 7 7 9 9 11 12 12 10 10 9 8 7 6 6 6
4 5 5 5 5 5 5 6 6 7 7 7 7 8 8 8 9 9 9 8 8 8 9 8 8 7 7 7 7 6 8 8 9 9 11 10 9 9 9 9 8 7 7
5 4 4 5 5 5 5 5 6 6 6 7 7 7 8 8 8 9 9 10 10 9 9 8 7 7 6 6 6 6 6 7 7 7 9 10 9 9 9 10 9 8 8
5 4 4 5 5 5 5 5 5 6 6 7 7 7 7 8 8 8 9 9 9 10 9 8 8 7 6 6 6 6 6 6 7 7 9 10 10 9 9 9 10 9 8
5 5 5 5 5 5 5 5 5 5 5 6 7 7 7 8 8 9 9 9 10 9 9 9 8 7 6 6 6 6 5 6 7 8 8 9 8 10 9 9 11 10 9
6 6 5 5 5 5 5 5 5 5 5 5 6 7 7 8 8 9 9 10 10 9 9 9 8 8 7 6 5 6 6 6 7 7 8 8 8 10 9 10 10 9 9
6 6 6 6 5 5 5 5 5 4 4 4 5 6 7 7 8 8 9 9 10 9 9 9 9 8 7 7 6 6 6 6 6 7 7 8 8 9 10 10 10 9 9
7 7 6 6 5 5 5 5 4 4 4 4 5 6 6 7 7 8 8 9 8 9 9 9 9 8 7 7 8 8 7 6 6 6 6 7 7 8 8 8 9 10 9
6 6 6 6 6 5 5 4 4 4 4 4 5 5 6 6 7 8 8 8 8 8 8 8 8 8 7 9 10 9 7 6 6 6 6 6 8 9 10 11 11 11 12
5 5 6 5 5 5 5 5 4 4 4 5 5 5 6 6 7 7 8 8 8 8 9 8 8 8 8 10 11 11 8 6 5 6 5 5 5 7 8 10 12 13 13
5 5 5 5 5 5 4 4 4 5 5 5 5 5 5 6 6 7 8 8 8 8 8 8 8 8 8 10 12 13 8 5 5 5 5 6 6 6 6 8 9 11 11
4 4 4 5 5 5 5 5 5 5 5 5 6 5 5 6 7 7 7 7 8 8 8 8 8 8 8 9 12 13 7 5 5 4 5 5 6 4 6 8 9 9 8
3 4 4 5 5 5 5 6 6 6 6 6 6 5 5 6 7 7 7 7 7 7 7 7 7 8 8 9 12 12 6 5 5 4 4 4 4 4 5 7 8 8 6
3 3 4 5 5 5 5 7 8 7 6 5 6 6 6 6 7 7 6 7 7 7 7 7 7 7 7 7 9 11 6 6 5 5 4 3 3 4 4 6 6 6 6
3 3 4 4 5 5 6 8 9 8 6 6 7 8 8 7 6 6 7 7 7 7 7 7 7 6 5 5 7 9 7 8 6 5 5 3 2 2 2 2 4 6 6
5 4 4 5 5 5 6 9 9 7 7 8 9 9 9 8 7 7 7 7 6 6 7 6 6 6 6 4 4 6 6 6 5 4 5 4 3 1 1 5 6 5 5
6 5 5 5 6 6 6 8 9 8 9 10 10 10 9 9 8 7 7 7 6 6 6 6 6 6 6 5 5 5 4 3 3 2 2 2 3 3 4 4 4 3 3
7 7 6 7 8 8 8 8 8 9 10 11 11 10 10 10 9 8 7 8 8 7 7 7 6 6 6 5 6 6 5 5 4 4 2 1 1 2 3 3 3 3 4
9 8 8 9 9 9 10 10 10 9 10 10 10 9 9 8 8 9 9 11 12 9 11 11 10 8 7 6 5 6 7 7 6 4 2 1 1 1 1 2 3 3 4
Wind_Direction
324 336 334 336 335 340 342 345 345 346 343 340 336 335 334 327 324 320 315 306 297 288 275 269 264 254 248 242 234 225 219 214 206 218 236 238 237 235 224 229 221 215 205
315 331 332 339 340 341 343 342 346 347 346 342 331 326 323 319 322 320 318 312 303 296 283 271 265 257 253 248 237 227 220 212 198 203 214 226 225 234 227 220 222 220 201
310 327 333 336 339 343 343 341 344 345 348 343 338 334 330 320 331 333 327 320 311 300 291 285 277 268 259 249 239 228 222 215 206 205 205 211 218 204 219 219 215 218 207
297 317 324 332 338 343 340 339 345 347 349 345 345 344 340 337 333 329 325 320 314 304 294 285 278 271 264 256 246 233 227 220 214 211 220 231 233 200 203 214 217 214 211
292 311 322 328 333 339 338 338 344 347 349 347 345 337 340 337 333 333 332 327 322 314 306 296 284 275 266 260 256 250 235 226 220 212 207 219 230 231 218 209 207 212 216
283 299 314 319 329 338 337 336 340 345 346 343 343 344 341 338 338 340 338 331 325 319 317 307 290 279 272 266 260 254 245 236 229 221 214 208 206 213 216 221 211 212 215
284 299 311 319 328 333 336 332 337 341 344 343 344 346 345 339 338 337 335 332 329 325 323 315 300 290 281 274 268 257 250 240 234 229 224 220 219 210 213 223 219 218 212
281 293 303 308 313 321 327 328 332 336 339 340 343 344 344 338 339 339 336 332 327 323 323 316 307 300 290 280 270 263 255 245 237 233 229 225 223 217 211 213 211 216 217
275 283 293 299 303 309 319 320 322 329 335 336 337 338 342 342 340 338 337 334 329 324 324 317 309 304 295 284 275 264 259 254 244 238 232 228 224 220 217 214 212 213 219
266 275 284 290 294 300 306 308 310 318 326 330 333 333 334 336 336 335 339 336 333 330 325 321 316 308 301 291 280 270 264 256 248 241 235 229 224 220 217 214 213 216 221
260 271 283 288 287 287 291 298 305 312 322 327 330 330 334 334 334 338 339 336 335 333 330 326 323 318 307 299 288 277 268 260 253 244 238 232 225 219 216 214 212 214 216
253 264 275 283 281 285 294 299 306 313 319 323 326 329 331 334 336 340 340 339 339 337 334 333 330 325 316 305 294 286 278 271 260 251 244 236 226 220 216 213 213 212 212
246 256 265 275 281 284 291 295 301 306 315 320 325 330 335 339 339 340 340 339 340 339 338 338 335 330 323 313 304 296 286 275 268 257 246 240 231 225 218 214 212 210 210
244 253 263 270 273 278 285 292 300 298 306 316 324 332 337 339 336 340 339 340 342 342 342 340 338 335 332 327 323 309 294 283 273 263 252 245 238 233 224 217 213 208 206
245 250 258 270 271 273 280 288 294 290 297 310 322 332 334 334 333 336 336 340 342 341 342 339 339 340 336 339 333 320 303 288 279 267 255 250 247 250 240 228 215 209 206
249 253 257 263 268 271 281 292 289 285 288 303 320 328 324 330 330 332 335 338 340 341 342 340 341 340 343 341 328 318 308 296 284 275 265 252 239 236 236 238 231 220 211
257 255 258 263 268 274 285 290 290 285 281 294 307 315 320 324 329 332 333 334 335 339 338 339 338 336 342 340 333 327 311 300 293 283 275 264 251 239 237 225 222 221 217
259 254 257 261 262 263 268 275 270 270 279 290 297 305 310 316 322 327 330 330 333 335 332 333 333 330 335 340 333 323 305 299 292 286 280 271 264 254 248 232 223 220 215
269 264 266 265 265 267 272 270 268 267 273 280 288 297 304 310 315 321 325 331 329 327 326 330 328 328 332 345 336 325 310 301 293 287 287 285 271 264 256 242 228 219 212
278 269 262 258 260 263 263 266 273 272 273 274 277 284 292 298 305 313 318 321 320 319 318 322 322 325 326 344 338 331 315 310 307 298 290 289 285 278 255 239 224 212 197
303 281 266 262 267 271 262 266 275 277 278 272 268 269 273 280 291 300 305 308 314 316 316 317 318 321 324 331 340 338 325 320 315 309 301 295 290 288 265 247 224 194 179
335 306 284 280 277 271 266 271 277 282 278 264 260 262 266 271 278 282 291 300 306 308 311 315 324 323 324 328 337 337 332 324 312 311 310 322 351 313 279 219 148 144 155
350 331 308 301 298 285 275 279 288 288 274 264 261 263 265 263 265 272 280 290 295 299 309 316 320 325 327 324 313 315 320 325 321 334 2 7 13 21 110 121 129 150 155
3 351 337 324 321 320 303 294 299 293 276 269 268 266 265 266 265 262 269 277 288 293 299 308 313 317 318 327 335 329 319 303 306 331 23 65 60 64 75 100 111 115 128
8 4 355 343 336 334 329 324 317 304 288 280 274 270 266 266 268 264 257 263 267 270 277 292 298 303 306 336 341 323 324 330 335 327 311 337 73 93 91 85 90 102 118
17 14 9 358 351 349 348 346 337 320 303 295 290 283 275 268 264 267 264 232 237 243 237 247 266 276 270 292 295 299 306 311 311 300 277 258 137 120 125 121 120 123 130
Height
1559 1558 1557 1555 1552 1550 1547 1544 1541 1537 1533 1530 1527 1524 1522 1519 1517 1515 1513 1511 1511 1510 1510 1510 1511 1511 1512 1513 1515 1517 1519 1521 1523 1526 1528 1531 1533 1536 1538 1540 1541 1543 1545
1557 1557 1555 1553 1551 1549 1546 1543 1540 1536 1533 1529 1526 1523 1520 1517 1515 1512 1510 1509 1508 1507 1507 1507 1507 1507 1508 1509 1510 1512 1514 1516 1518 1521 1524 1526 1529 1530 1533 1535 1537 1540 1542
1556 1555 1554 1552 1550 1547 1545 1542 1538 1535 1532 1528 1525 1522 1519 1516 1514 1511 1508 1506 1505 1504 1503 1503 1503 1503 1504 1505 1506 1507 1509 1511 1513 1516 1520 1521 1523 1525 1528 1531 1533 1536 1538
1554 1553 1552 1551 1549 1546 1543 1541 1538 1535 1531 1528 1525 1521 1518 1515 1513 1510 1507 1505 1503 1501 1500 1500 1500 1500 1500 1501 1502 1503 1504 1506 1508 1511 1514 1516 1518 1521 1522 1525 1528 1531 1534
1552 1552 1551 1549 1548 1545 1542 1539 1537 1534 1530 1527 1524 1521 1518 1515 1512 1509 1506 1503 1501 1499 1498 1497 1496 1496 1496 1496 1497 1498 1500 1501 1503 1505 1508 1510 1513 1516 1518 1519 1523 1526 1529
1551 1550 1549 1548 1546 1544 1541 1538 1536 1533 1529 1526 1523 1520 1517 1514 1511 1508 1505 1502 1499 1497 1495 1494 1493 1492 1492 1493 1493 1494 1495 1496 1498 1500 1502 1505 1507 1510 1513 1515 1517 1520 1524
1549 1548 1548 1547 1545 1543 1540 1537 1535 1532 1529 1526 1523 1520 1516 1513 1510 1506 1503 1500 1497 1495 1493 1491 1490 1489 1489 1489 1489 1489 1490 1492 1493 1495 1497 1499 1502 1504 1508 1511 1513 1516 1519
1547 1547 1546 1545 1543 1541 1539 1536 1534 1531 1528 1525 1522 1519 1515 1512 1509 1506 1502 1499 1496 1493 1491 1489 1487 1486 1486 1485 1485 1485 1486 1487 1488 1490 1492 1494 1496 1499 1502 1505 1509 1512 1514
1545 1545 1544 1543 1542 1540 1538 1535 1533 1530 1527 1524 1521 1518 1515 1511 1508 1505 1502 1498 1495 1492 1489 1487 1485 1484 1483 1482 1482 1482 1482 1483 1484 1485 1487 1489 1491 1493 1496 1499 1503 1507 1509
1543 1543 1542 1541 1540 1538 1536 1534 1532 1529 1526 1523 1520 1517 1514 1510 1507 1504 1500 1497 1494 1490 1487 1485 1483 1481 1480 1479 1479 1479 1478 1479 1479 1481 1482 1484 1486 1488 1491 1494 1497 1500 1503
1541 1541 1540 1539 1538 1536 1535 1533 1530 1528 1525 1522 1519 1516 1513 1509 1506 1503 1499 1496 1493 1489 1486 1484 1481 1479 1478 1477 1476 1476 1476 1476 1476 1477 1478 1479 1481 1483 1485 1488 1491 1494 1497
1538 1538 1538 1537 1536 1534 1533 1531 1529 1527 1524 1521 1518 1515 1512 1509 1505 1502 1499 1495 1492 1488 1485 1483 1480 1478 1476 1475 1474 1473 1473 1473 1473 1473 1474 1475 1476 1478 1480 1483 1485 1488 1491
1536 1536 1536 1535 1534 1532 1531 1529 1527 1525 1522 1519 1516 1514 1511 1508 1505 1501 1498 1495 1491 1488 1485 1482 1479 1477 1475 1473 1472 1471 1470 1470 1470 1470 1470 1471 1472 1474 1476 1478 1480 1483 1486
1533 1533 1533 1533 1532 1530 1529 1527 1526 1523 1521 1518 1515 1513 1510 1507 1504 1501 1497 1494 1491 1487 1484 1481 1478 1476 1474 1472 1470 1469 1468 1467 1467 1467 1467 1467 1468 1470 1472 1473 1475 1478 1481
1531 1531 1531 1530 1530 1529 1527 1526 1524 1522 1520 1517 1515 1512 1509 1506 1503 1500 1497 1493 1490 1487 1483 1480 1477 1475 1473 1471 1469 1467 1466 1465 1464 1464 1464 1464 1464 1466 1467 1469 1471 1474 1476
1528 1528 1528 1528 1527 1527 1526 1524 1522 1521 1518 1516 1514 1511 1508 1505 1502 1499 1496 1493 1489 1486 1483 1480 1477 1474 1471 1469 1467 1465 1464 1463 1462 1461 1461 1461 1461 1462 1463 1465 1467 1469 1471
1526 1526 1526 1526 1525 1525 1524 1522 1521 1519 1517 1515 1513 1510 1507 1504 1501 1498 1495 1492 1489 1486 1482 1479 1476 1473 1470 1468 1466 1464 1462 1461 1460 1458 1458 1458 1458 1458 1459 1461 1462 1464 1467
1524 1524 1524 1524 1523 1522 1521 1520 1518 1517 1515 1514 1511 1509 1506 1503 1500 1497 1494 1491 1488 1485 1481 1478 1475 1472 1469 1466 1464 1462 1460 1459 1457 1456 1455 1455 1454 1455 1456 1457 1458 1460 1462
1522 1522 1522 1521 1521 1520 1519 1518 1517 1516 1514 1512 1510 1508 1505 1502 1499 1497 1494 1490 1487 1484 1481 1478 1474 1471 1468 1465 1462 1460 1458 1457 1455 1454 1453 1452 1452 1451 1452 1453 1454 1456 1458
1520 1520 1519 1519 1519 1518 1517 1516 1515 1514 1512 1510 1508 1506 1503 1501 1498 1495 1493 1490 1486 1483 1480 1477 1473 1470 1467 1464 1461 1458 1457 1455 1453 1452 1451 1449 1448 1448 1448 1449 1451 1452 1454
1518 1518 1517 1517 1517 1516 1515 1514 1513 1512 1510 1508 1506 1503 1501 1499 1496 1494 1491 1488 1485 1482 1479 1476 1473 1469 1466 1463 1460 1458 1456 1454 1452 1450 1449 1447 1446 1446 1445 1446 1448 1449 1451
1517 1516 1516 1515 1514 1513 1512 1511 1510 1509 1507 1505 1503 1501 1499 1497 1495 1492 1490 1487 1484 1481 1478 1475 1472 1469 1466 1463 1460 1457 1455 1453 1451 1449 1447 1446 1444 1444 1444 1444 1445 1447 1449
1515 1514 1514 1513 1512 1511 1510 1508 1507 1506 1504 1502 1500 1499 1497 1495 1492 1490 1488 1486 1483 1480 1477 1475 1472 1469 1466 1462 1459 1457 1454 1452 1450 1448 1446 1445 1444 1444 1443 1444 1445 1446 1448
1513 1512 1511 1510 1509 1508 1506 1505 1503 1502 1500 1498 1497 1496 1494 1492 1490 1488 1486 1483 1481 1479 1476 1473 1470 1468 1465 1462 1459 1457 1455 1453 1451 1449 1447 1446 1445 1445 1444 1444 1445 1447 1448
1512 1511 1509 1508 1507 1505 1503 1501 1499 1498 1496 1494 1493 1492 1490 1488 1486 1484 1482 1480 1478 1476 1474 1471 1469 1467 1464 1462 1459 1457 1455 1453 1451 1450 1449 1447 1447 1446 1446 1446 1447 1447 1449
1510 1509 1507 1506 1504 1502 1500 1498 1496 1494 1492 1490 1489 1487 1486 1484 1482 1480 1478 1476 1475 1473 1471 1469 1467 1464 1463 1460 1459 1457 1455 1454 1452 1451 1450 1449 1448 1448 1448 1448 1448 1449 1450